Content
SEND FEEDBACK

Daily
Averages
Monthly
Summary
United States of America

NEW YORK - CENTRAL PARK, NEW YORK


Home > North America > United States > New York
Elevation: 14 feet     Latitude: 40 47N     Longitude: 073 58W

WEATHER
 
SELECT A DAY
Number of Records: 151,258;   Date Range: 11/1/95 - 10/22/14
 
SHARE

PRINT THIS DATA

[ ← Previous Day ]
WEATHER ALMANAC - SEPTEMBER 18, 2013
[ Next Day → ]
[ °C ]   °F
Weather ElementAverageHighLow
Temperature60.9 °F70 °F (1:51 pm)51.1 °F (6:51 am)
Dewpoint43.4 °F50 °F (7:51 pm)39 °F (1:51 pm)
Humidity54.3 %69 % (3:51 am)32 % (1:51 pm)
Barometer30.27 in30.35 in (1:51 am)30.20 in (5:51 pm)
Wind Speed2.5 mph6.9 mph (11:51 pm)
Weather ElementAverage
Visibility10 mi
Wind DirectionENE (67 °)

Weather ElementTotal
Precipitation---
Heating Degree Days4.5 (Base 65)
Growing Degree Days10.6 (Base 50)
Averaged from 23 records on September 18, 2013
WEATHER CONDITIONS BREAKOUT
WIND DIRECTION BREAKOUT
WEATHER BY HOUR - SEPTEMBER 18, 2013
[ °C ]   °F
Local TimeTemperatureDewpointHumidityBarometerVisibilityWind DirectionWind SpeedGust SpeedPrecipitationEventsConditions
1:51 AM55.0 °F43.0 °F64 %30.35 in10.0 miCalmClear
2:51 AM54.0 °F42.1 °F64 %30.34 in10.0 miWNW (300°)3.5 mphClear
3:51 AM53.1 °F43.0 °F69 %30.34 in10.0 miCalmClear
4:51 AM54.0 °F41.0 °F62 %30.34 in10.0 miWNW (300°)3.5 mphClear
5:51 AM53.1 °F41.0 °F64 %30.33 in10.0 miWNW (290°)3.5 mphClear
6:51 AM51.1 °F41.0 °F68 %30.34 in10.0 miCalmClear
7:51 AM54.0 °F41.0 °F62 %30.34 in10.0 miVariable3.5 mphClear
8:51 AM55.0 °F41.0 °F59 %30.34 in10.0 miCalmClear
9:51 AM59.0 °F41.0 °F51 %30.34 in10.0 miVariable3.5 mphClear
10:51 AM62.1 °F41.0 °F46 %30.32 in10.0 miCalmClear
11:51 AM66.0 °F39.9 °F38 %30.30 in10.0 miCalmClear
12:51 PM69.1 °F41.0 °F36 %30.28 in10.0 miCalmClear
1:51 PM70.0 °F39.0 °F32 %30.25 in10.0 miCalmClear
2:51 PM70.0 °F41.0 °F35 %30.24 in10.0 miVariable5.8 mphClear
3:51 PM70.0 °F41.0 °F35 %30.22 in10.0 miVariable3.5 mphClear
4:51 PM70.0 °F39.0 °F32 %30.21 in10.0 miNorthClear
5:51 PM66.9 °F46.0 °F47 %30.20 in10.0 miVariable3.5 mphClear
6:51 PM64.0 °F48.0 °F56 %30.20 in10.0 miSSE (160°)4.6 mphClear
7:51 PM63.0 °F50.0 °F63 %30.20 in10.0 miVariable3.5 mphClear
8:51 PM61.0 °F50.0 °F67 %30.20 in10.0 miCalmClear
9:51 PM61.0 °F48.9 °F64 %30.20 in10.0 miWSW (240°)4.6 mphClear
10:51 PM61.0 °F50.0 °F67 %30.21 in10.0 miVariable5.8 mphClear
11:51 PM59.0 °F48.9 °F69 %30.20 in10.0 miWSW (250°)6.9 mphClear
Hourly data recorded from KNYC, located miles away from New York - Central Park, New York







STORIES FROM OUR PARTNERS